Location: Unspecified
(33.6682°S, 0.0000°E)
Time: 05:41:48
(UTC+00:00)

Vanguard 1 - Visible Passes

Search period start: 13 August 2020 00:00
Search period end: 23 August 2020 00:00
Orbit: 649 x 3833 km, 34.3° (Epoch: 12 August)

Date Brightness Start Highest point End Pass type
(mag) Time Alt. Az. Time Alt. Az. Time Alt. Az.
13 Aug 11.8 03:26:23 35° NNE 03:26:23 35° NNE 03:33:42 10° NE visible
13 Aug 12.5 05:39:07 10° WNW 05:45:29 19° NNW 05:54:31 10° N visible
13 Aug 12.3 20:38:28 10° NW 20:38:49 11° NW 20:38:49 11° NW visible
14 Aug 11.8 03:46:22 32° N 03:46:22 32° N 03:54:17 10° NE visible
14 Aug 12.8 06:02:33 10° NW 06:06:50 13° NNW 06:12:03 10° N visible
14 Aug 11.7 18:40:35 10° N 18:43:54 13° NNE 18:46:06 11° NE visible
15 Aug 12.0 04:06:22 26° NNW 04:06:22 26° NNW 04:14:25 10° NNE visible
15 Aug 11.3 18:59:40 10° NNW 19:04:55 21° NNE 19:06:07 19° NE visible
16 Aug 12.2 04:26:23 19° NNW 04:26:34 19° NNW 04:33:54 10° NNE visible
16 Aug 10.8 19:19:39 10° NW 19:25:53 29° NNE 19:26:07 29° NNE visible
17 Aug 13.0 02:33:40 10° NE 02:33:40 10° NE 02:33:51 10° NE visible
17 Aug 12.5 04:46:24 12° NW 04:47:48 13° NNW 04:52:07 10° N visible
17 Aug 10.6 19:40:07 10° NW 19:46:07 39° N 19:46:07 39° N visible
18 Aug 12.9 02:53:42 11° NNE 02:53:42 11° NNE 02:54:10 10° NNE visible
18 Aug 10.7 20:00:53 10° WNW 20:06:06 42° NNW 20:06:06 42° NNW visible
19 Aug 12.9 03:13:43 10° NNE 03:13:43 10° NNE 03:13:57 10° NNE visible
19 Aug 11.6 17:59:51 10° NNW 18:07:57 28° NNE 18:13:11 10° E visible
19 Aug 11.1 20:21:53 10° WNW 20:26:04 35° WNW 20:26:04 35° WNW visible
20 Aug 11.1 18:20:10 10° NW 18:28:58 38° NNE 18:33:17 16° E visible
20 Aug 11.7 20:43:01 10° WNW 20:46:01 26° WNW 20:46:01 26° WNW visible
21 Aug 10.7 18:40:52 10° NW 18:49:58 50° NNE 18:53:14 26° E visible
21 Aug 12.2 21:04:13 10° W 21:05:57 18° W 21:05:57 18° W visible
22 Aug 10.3 19:01:51 10° WNW 19:10:55 63° NNE 19:13:09 39° E visible
22 Aug 12.6 21:25:24 10° W 21:25:52 12° W 21:25:52 12° W visible
